TITAN 3C TRANSTAGE DEB, 36984

Orbit data source: Space-Track

TITAN 3C TRANSTAGE DEB, 36984 is space debris originally from a launch on Tue, 21 Dec 1965 UTC launched from the Air Force Eastern Test Range (AFETR). Debris objects in space refer to the collection of defunct objects orbiting the Earth. Examples of debris include non-operational satellites, rocket bodies, and fragments generated from explosions, collisions, or faulty payload assembly.

Loading next visibility...
Identifier
36984, 1965-108DQ
Orbit
Active
Country
Flag of USUS
Related business
Manufacturer
Unknown
Mission
Spacecraft
Bus & Motor
Unknown
Mass
Unknown
Launch date (UTC)
1965-12-21 (60 years ago)
Launch vehicle
Unknown
Launch site
Air Force Eastern Test Range (AFETR)
Object type
Payload
Rocket body
Debris
Shape & HBR
Unknown shape, 0.1 m
Radar Cross Section
Small (<0.1 m²)

Expand to show TLE details & history
Last TLE update: 17 hours ago

TLE from 17 hours ago
0 TITAN 3C TRANSTAGE DEB
1 36984U 65108DQ  26036.51759733  .00001806  00000-0  37247-2 0  9997
2 36984  26.4171 143.1113 4094793 182.6204 174.3681  6.77514208633288
Epoch: 2026-02-05T12:25Z
TLE epoch observation values (Epoch: 2026-02-05T12:25:20.409Z)
Latitude
-0°
Longitude
-178.89243°
Altitude
10,236.178 km
Speed
3.769 km/s
True Right ascension
09h 32m 26s
True Declination
0° 00' 00"
Sunlit
Object was in full shadow at epoch
Visualization orbit readout
Latitude
Unknown
Longitude
Unknown
Altitude
Unknown
Speed
Unknown
Apparent Right ascension
Unknown
Apparent Declination
Unknown
Sunlit
N/A
Visualization observer readout
Local Sidereal Time
07:38:44
Azimuth
Unknown
Elevation
Unknown
Doppler factor
Unknown
Orbital elements
Apogee altitude
10,255.062 km
Perigee altitude
590.57 km
Semi-major axis
11,800.953 km
Eccentricity
0.40948
Inclination
26.4171°
RAAN
143.1113°
Arg. of periapsis
182.6204°
True anomaly
177.41245°
Mean anomaly
174.3681°
Eccentric anomaly
176.00333°
Mean motion
1.69304 °/min
Orbital period
212.64 mins
BSTAR
0.0037247
Loading maneuver chart data...
Computing Atmospheric mass density...

Documentation

Showing up to 5 results
|